Location: Unspecified
(0.0000°N, 0.0000°E)
Time: 21:02:07
(UTC+01:00)

Ariane H10 - Visible Passes

Search period start: 24 November 2017 00:00
Search period end: 04 December 2017 00:00
Orbit: 289 x 23511 km, 3.8° (Epoch: 24 November)

Date Brightness Start Highest point End Pass type
(mag) Time Alt. Az. Time Alt. Az. Time Alt. Az.
24 Nov 7.8 18:06:04 10° W 22:52:35 90° S 23:30:22 73° E visible
25 Nov 7.1 14:20:23 10° W 17:24:28 32° E 19:53:49 10° E visible
25 Nov 6.0 22:19:58 10° W 00:33:03 23° W 03:36:40 10° E visible
26 Nov 7.9 17:54:24 10° W 22:26:08 89° SSE 23:20:28 69° E visible
27 Nov 7.0 14:09:11 10° W 17:13:58 30° E 19:39:08 10° E visible
27 Nov 5.9 22:03:30 10° W 00:22:30 26° W 03:25:27 10° E visible
28 Nov 8.3 17:42:40 10° W 21:49:12 89° SSE 23:10:25 65° E visible
29 Nov 6.9 13:57:54 10° W 17:03:19 28° E 19:23:49 10° E visible
29 Nov 5.9 21:47:39 10° W 00:11:55 28° W 03:14:08 10° E visible
30 Nov 8.3 17:30:54 10° W 21:03:51 88° SE 23:00:14 61° E visible
01 Dec 6.8 13:46:31 10° W 16:52:32 25° E 19:07:43 10° E visible
01 Dec 6.9 21:32:17 10° W 00:01:18 31° W 03:02:43 10° E visible
02 Dec 8.3 17:19:02 10° W 18:47:17 86° S 22:49:56 57° E visible
03 Dec 3.0 06:18:07 10° W 06:27:54 60° N 06:30:41 10° ENE visible
